• In Uzbekistan
  • List of Countries
  • For 7 days
  • Water Temperature
  • Satellite Maps
  • Weather Map
  • Weather Widgets
  • user-avatar
    Login

    Hourly Weather Oxchuc

    Today, 22 April, Sunday

    Time Temperature Precipitation Wind Pressure Humidity
    00:00 +15°C° 0 mm 1 mps 605 mmHg 81%
    01:00 +15°C° 0 mm 1 mps 605 mmHg 81%
    02:00 +15°C° 0 mm 1 mps 604 mmHg 82%
    03:00 +15°C° 0 mm 1 mps 604 mmHg 83%
    04:00 +14°C° 0 mm 1 mps 604 mmHg 83%
    05:00 +14°C° 0 mm 1 mps 604 mmHg 84%
    06:00 +14°C° 0 mm 1 mps 604 mmHg 85%
    07:00 +18°C° 0 mm 1 mps 606 mmHg 74%
    08:00 +21°C° 0 mm 1 mps 607 mmHg 62%
    09:00 +24°C° 0 mm 1 mps 608 mmHg 51%
    10:00 +25°C° 0 mm 1 mps 609 mmHg 47%
    11:00 +26°C° 0 mm 1 mps 609 mmHg 44%
    12:00 +27°C° 0 mm 1 mps 609 mmHg 41%
    13:00 +26°C° 0.2 mm 1 mps 608 mmHg 43%
    14:00 +26°C° 0.2 mm 1 mps 607 mmHg 46%
    15:00 +25°C° 0.2 mm 1 mps 607 mmHg 49%
    16:00 +23°C° 0.5 mm 1 mps 606 mmHg 56%
    17:00 +22°C° 0.5 mm 1 mps 605 mmHg 63%
    18:00 +20°C° 0.5 mm 1 mps 605 mmHg 70%
    19:00 +19°C° 0.4 mm 1 mps 605 mmHg 75%
    20:00 +18°C° 0.4 mm 1 mps 605 mmHg 79%
    21:00 +16°C° 0.4 mm 1 mps 605 mmHg 84%
    22:00 +15°C° 0.2 mm 1 mps 605 mmHg 82%
    23:00 +15°C° 0.2 mm 1 mps 605 mmHg 81%

    Tomorrow, 23 April, Monday

    Time Temperature Precipitation Wind Pressure Humidity
    00:00 +15°C° 0.2 mm 1 mps 605 mmHg 80%
    01:00 +14°C° 0.1 mm 1 mps 605 mmHg 80%
    02:00 +14°C° 0.1 mm 1 mps 604 mmHg 80%
    03:00 +14°C° 0.1 mm 1 mps 604 mmHg 80%
    04:00 +14°C° 0 mm 1 mps 604 mmHg 81%
    05:00 +13°C° 0 mm 1 mps 604 mmHg 81%
    06:00 +13°C° 0 mm 1 mps 605 mmHg 81%
    07:00 +16°C° 0 mm 1 mps 606 mmHg 71%
    08:00 +20°C° 0 mm 1 mps 608 mmHg 61%
    09:00 +23°C° 0 mm 1 mps 609 mmHg 50%
    10:00 +25°C° 0 mm 1 mps 609 mmHg 47%
    11:00 +26°C° 0 mm 1 mps 610 mmHg 43%
    12:00 +27°C° 0 mm 1 mps 610 mmHg 39%
    13:00 +26°C° 0.3 mm 2 mps 609 mmHg 43%
    14:00 +26°C° 0.3 mm 2 mps 608 mmHg 46%
    15:00 +25°C° 0.3 mm 2 mps 607 mmHg 50%
    16:00 +23°C° 0.8 mm 2 mps 607 mmHg 58%
    17:00 +21°C° 0.8 mm 1 mps 606 mmHg 66%
    18:00 +20°C° 0.8 mm 1 mps 605 mmHg 74%
    19:00 +19°C° 0.5 mm 1 mps 606 mmHg 77%
    20:00 +18°C° 0.5 mm 1 mps 606 mmHg 81%
    21:00 +16°C° 0.5 mm 1 mps 606 mmHg 84%
    22:00 +15°C° 0.3 mm 1 mps 606 mmHg 84%
    23:00 +15°C° 0.3 mm 1 mps 606 mmHg 83%

    Day after tomorrow, 24 April, Tuesday

    Time Temperature Precipitation Wind Pressure Humidity
    00:00 +15°C° 0.3 mm 1 mps 606 mmHg 83%
    01:00 +15°C° 0 mm 1 mps 606 mmHg 83%
    02:00 +14°C° 0 mm 1 mps 605 mmHg 83%
    03:00 +14°C° 0 mm 1 mps 605 mmHg 83%
    04:00 +14°C° 0 mm 1 mps 605 mmHg 83%
    05:00 +14°C° 0 mm 1 mps 605 mmHg 84%
    06:00 +14°C° 0 mm 1 mps 605 mmHg 84%
    07:00 +16°C° 0 mm 1 mps 606 mmHg 75%
    08:00 +20°C° 0 mm 1 mps 608 mmHg 65%
    09:00 +23°C° 0 mm 1 mps 609 mmHg 55%
    10:00 +24°C° 0 mm 1 mps 609 mmHg 52%
    11:00 +25°C° 0 mm 1 mps 610 mmHg 49%
    12:00 +26°C° 0 mm 1 mps 610 mmHg 45%
    13:00 +25°C° 0.3 mm 2 mps 609 mmHg 48%
    14:00 +24°C° 0.3 mm 2 mps 608 mmHg 52%
    15:00 +24°C° 0.3 mm 2 mps 607 mmHg 55%
    16:00 +22°C° 0.7 mm 1 mps 606 mmHg 61%
    17:00 +21°C° 0.7 mm 1 mps 606 mmHg 67%
    18:00 +19°C° 0.7 mm 1 mps 606 mmHg 74%
    19:00 +18°C° 0.2 mm 1 mps 606 mmHg 77%
    20:00 +18°C° 0.2 mm 1 mps 606 mmHg 81%
    21:00 +16°C° 0.2 mm 1 mps 606 mmHg 84%
    22:00 +15°C° 0.1 mm 1 mps 606 mmHg 84%
    23:00 +15°C° 0.1 mm 1 mps 606 mmHg 83%

    25 April, Wednesday

    Time Temperature Precipitation Wind Pressure Humidity
    00:00 +15°C° 0.1 mm 1 mps 606 mmHg 83%
    01:00 +14°C° 0 mm 1 mps 605 mmHg 83%
    02:00 +14°C° 0 mm 1 mps 605 mmHg 83%
    03:00 +14°C° 0 mm 1 mps 604 mmHg 84%
    04:00 +14°C° 0 mm 1 mps 604 mmHg 84%
    05:00 +13°C° 0 mm 1 mps 605 mmHg 84%
    06:00 +13°C° 0 mm 1 mps 605 mmHg 83%
    07:00 +16°C° 0 mm 1 mps 606 mmHg 73%
    08:00 +20°C° 0 mm 1 mps 608 mmHg 63%
    09:00 +23°C° 0 mm 1 mps 609 mmHg 53%
    10:00 +24°C° 0.1 mm 1 mps 609 mmHg 50%
    11:00 +25°C° 0.1 mm 1 mps 609 mmHg 48%
    12:00 +26°C° 0.1 mm 1 mps 609 mmHg 45%
    13:00 +25°C° 0.4 mm 1 mps 608 mmHg 48%
    14:00 +25°C° 0.4 mm 1 mps 608 mmHg 51%
    15:00 +24°C° 0.4 mm 1 mps 607 mmHg 54%
    16:00 +23°C° 0.9 mm 1 mps 606 mmHg 61%
    17:00 +21°C° 0.9 mm 1 mps 606 mmHg 67%
    18:00 +20°C° 0.9 mm 1 mps 605 mmHg 74%
    19:00 +18°C° 0.7 mm 1 mps 605 mmHg 78%
    20:00 +16°C° 0.7 mm 1 mps 605 mmHg 82%
    21:00 +15°C° 0.7 mm 1 mps 605 mmHg 86%
    22:00 +15°C° 0.2 mm 1 mps 605 mmHg 85%
    23:00 +15°C° 0.2 mm 1 mps 605 mmHg 85%

    26 April, Thursday

    Time Temperature Precipitation Wind Pressure Humidity
    00:00 +15°C° 0.2 mm 1 mps 605 mmHg 84%
    01:00 +14°C° 0.1 mm 1 mps 604 mmHg 84%
    02:00 +14°C° 0.1 mm 1 mps 604 mmHg 84%
    03:00 +13°C° 0.1 mm 0 mps 604 mmHg 84%
    04:00 +13°C° 0 mm 0 mps 604 mmHg 84%
    05:00 +12°C° 0 mm 0 mps 604 mmHg 84%
    06:00 +13°C° 0 mm 1 mps 604 mmHg 85%
    07:00 +16°C° 0 mm 1 mps 606 mmHg 76%
    08:00 +19°C° 0 mm 1 mps 607 mmHg 68%
    09:00 +21°C° 0 mm 1 mps 608 mmHg 59%
    10:00 +22°C° 0.2 mm 1 mps 608 mmHg 56%
    11:00 +24°C° 0.2 mm 1 mps 608 mmHg 52%
    12:00 +25°C° 0.2 mm 1 mps 609 mmHg 48%
    13:00 +24°C° 0.8 mm 1 mps 608 mmHg 53%
    14:00 +23°C° 0.8 mm 1 mps 607 mmHg 58%
    15:00 +22°C° 0.8 mm 1 mps 606 mmHg 62%
    16:00 +21°C° 0.9 mm 1 mps 605 mmHg 69%
    17:00 +19°C° 0.9 mm 1 mps 605 mmHg 76%
    18:00 +18°C° 0.9 mm 1 mps 604 mmHg 83%
    19:00 +16°C° 1.1 mm 1 mps 605 mmHg 84%
    20:00 +15°C° 1.1 mm 1 mps 605 mmHg 85%
    21:00 +15°C° 1.1 mm 1 mps 605 mmHg 86%
    22:00 +14°C° 0.4 mm 1 mps 605 mmHg 85%
    23:00 +14°C° 0.4 mm 1 mps 605 mmHg 84%

    27 April, Friday

    Time Temperature Precipitation Wind Pressure Humidity
    00:00 +14°C° 0.4 mm 1 mps 605 mmHg 83%
    01:00 +13°C° 0 mm 1 mps 604 mmHg 82%
    02:00 +13°C° 0 mm 1 mps 604 mmHg 82%
    03:00 +13°C° 0 mm 1 mps 603 mmHg 82%
    04:00 +13°C° 0 mm 1 mps 603 mmHg 82%
    05:00 +12°C° 0 mm 1 mps 604 mmHg 82%
    06:00 +12°C° 0 mm 1 mps 604 mmHg 82%
    07:00 +15°C° 0 mm 1 mps 605 mmHg 74%
    08:00 +19°C° 0 mm 1 mps 607 mmHg 65%
    09:00 +21°C° 0 mm 1 mps 608 mmHg 56%
    10:00 +23°C° 0.1 mm 1 mps 608 mmHg 53%
    11:00 +24°C° 0.1 mm 1 mps 608 mmHg 50%
    12:00 +25°C° 0.1 mm 1 mps 608 mmHg 47%
    13:00 +24°C° 0.8 mm 1 mps 607 mmHg 51%
    14:00 +24°C° 0.8 mm 1 mps 607 mmHg 56%
    15:00 +23°C° 0.8 mm 1 mps 606 mmHg 60%
    16:00 +21°C° 1.1 mm 1 mps 605 mmHg 67%
    17:00 +20°C° 1.1 mm 1 mps 605 mmHg 73%
    18:00 +18°C° 1.1 mm 1 mps 604 mmHg 80%
    19:00 +16°C° 1.2 mm 1 mps 605 mmHg 83%
    20:00 +16°C° 1.2 mm 1 mps 605 mmHg 86%
    21:00 +15°C° 1.2 mm 1 mps 605 mmHg 88%
    22:00 +15°C° 0.7 mm 1 mps 605 mmHg 88%
    23:00 +14°C° 0.7 mm 0 mps 605 mmHg 87%
    Show more